This demonstration page uses our WeatherBlox Daily Observations layout. Learn more.

Left ArrowRight Arrow

Hourly Observations for April 10, 2021

Temp ( °F °C ) Dew Point ( °F °C ) Humidity (%) Winds ( mph kmh ) Pressure ( in mb ) Visibility ( mi km ) Precip ( " mm )
12:15 am 00:15 Cloudy with Rain 40 4.7 38 3.5 92 92 NNW 14 22 29.98 1015 7 11.26538 0.01 0.254
12:35 am 00:35 Cloudy with Rain 41 4.8 38 3.6 92 92 NNW 13 20 29.98 1015 10 16.0934 0.01 0.254
12:55 am 00:55 Cloudy with Drizzle 41 5 39 3.7 91 91 N 10 17 29.97 1015 10 16.0934 0.01 0.254
1:15 am 01:15 Cloudy 41 4.8 38 3.5 91 91 NW 9 15 29.98 1015 10 16.0934 0 0
1:35 am 01:35 Mostly Cloudy 39 4.1 37 3 93 93 NW 9 15 29.99 1015 10 16.0934 0 0
1:55 am 01:55 Mostly Cloudy 39 3.7 37 2.5 92 92 NW 9 15 29.98 1015 10 16.0934 0 0
2:15 am 02:15 Partly Cloudy 38 3.3 36 2 91 91 NW 9 15 29.98 1015 10 16.0934 0 0
2:35 am 02:35 Clear 38 3.5 36 2 90 90 NNW 9 15 29.97 1015 10 16.0934 0 0
2:55 am 02:55 Clear 37 3 35 1.6 91 91 NNW 7 11 29.98 1015 10 16.0934 0 0
3:15 am 03:15 Partly Cloudy 37 2.6 35 1.5 93 93 NW 6 9 29.97 1015 10 16.0934 0 0
3:35 am 03:35 Mostly Cloudy 37 2.5 35 1.4 93 93 NW 6 9 29.97 1015 10 16.0934 0 0
3:55 am 03:55 Cloudy 36 2.3 34 1.3 93 93 WNW 9 15 29.97 1015 10 16.0934 0 0
4:15 am 04:15 Mostly Cloudy 37 2.5 33 0.5 87 87 WNW 13 20 29.96 1015 10 16.0934 0 0
4:35 am 04:35 Partly Cloudy 36 2.3 32 0 85 85 NW 14 22 29.96 1015 10 16.0934 0 0
4:55 am 04:55 Clear 36 2 31 -0.5 84 84 NW 12 19 29.97 1015 10 16.0934 0 0
5:15 am 05:15 Clear 36 2.2 31 -0.8 81 81 NW 12 19 29.96 1015 10 16.0934 0 0
5:35 am 05:35 Clear 37 2.5 30 -1.1 77 77 NW 12 19 29.96 1015 10 16.0934 0 0
5:55 am 05:55 Clear 34 1.2 30 -1 85 85 NW 10 17 29.97 1015 10 16.0934 0 0
6:15 am 06:15 Clear 34 1.2 30 -1.2 84 84 NW 9 15 29.97 1015 10 16.0934 0 0
6:35 am 06:35 Clear 34 1.2 30 -1.3 84 84 NW 8 13 29.98 1015 10 16.0934 0 0
6:55 am 06:55 Clear 35 1.7 29 -1.9 77 77 NNW 8 13 29.97 1015 10 16.0934 0 0
7:15 am 07:15 Sunny 35 1.8 28 -2.3 75 75 NW 7 11 29.98 1015 10 16.0934 0 0
7:35 am 07:35 Sunny 34 1.2 28 -2.3 78 78 NNW 8 13 29.98 1015 10 16.0934 0 0
7:55 am 07:55 Sunny 35 1.7 27 -2.6 73 73 NW 10 17 29.99 1016 10 16.0934 0 0
8:15 am 08:15 Sunny 35 1.8 28 -2 76 76 NW 10 17 30 1016 10 16.0934 0 0
8:35 am 08:35 Sunny 37 2.5 29 -1.9 73 73 NW 9 15 29.99 1016 10 16.0934 0 0
8:55 am 08:55 Sunny 38 3.2 30 -0.9 75 75 NW 10 17 29.99 1016 10 16.0934 0 0
9:15 am 09:15 Sunny 40 4.6 29 -1.5 65 65 NW 9 15 29.98 1015 10 16.0934 0 0
9:35 am 09:35 Sunny 42 5.7 30 -1.2 62 62 NNW 9 15 29.96 1015 10 16.0934 0 0
9:55 am 09:55 Sunny 44 6.7 31 -0.7 60 60 NNW 10 17 29.95 1014 10 16.0934 0 0
10:15 am 10:15 Sunny 46 7.5 31 -0.4 58 58 NNW 10 17 29.95 1014 10 16.0934 0 0
10:35 am 10:35 Sunny 47 8.3 32 0.2 57 57 NNW 12 19 29.94 1014 10 16.0934 0 0
10:55 am 10:55 Sunny 48 9.1 34 1.1 58 58 NNW 10 17 29.93 1014 10 16.0934 0 0
11:15 am 11:15 Sunny 50 10.2 36 2 57 57 NNW 9 15 29.92 1013 10 16.0934 0 0
11:35 am 11:35 Sunny 51 10.5 35 1.7 55 55 NW 8 13 29.92 1013 10 16.0934 0 0
11:55 am 11:55 Sunny 52 11.2 33 0.4 48 48 NW 10 17 29.91 1013 10 16.0934 0 0
12:15 pm 12:15 Sunny 54 12 30 -1.2 40 40 NNW 10 17 29.89 1012 10 16.0934 0 0
12:35 pm 12:35 Sunny 55 12.6 26 -3.5 33 33 NNW 8 13 29.88 1012 10 16.0934 0 0
12:55 pm 12:55 Sunny 55 12.7 24 -4.4 30 30 NNW 12 19 29.86 1011 10 16.0934 0 0
1:15 pm 13:15 Sunny 56 13.1 24 -4.2 30 30 NNW 12 19 29.85 1011 10 16.0934 0 0
1:35 pm 13:35 Sunny 57 13.7 23 -5.2 27 27 NW 10 17 29.83 1010 10 16.0934 0 0
1:55 pm 13:55 Sunny 57 13.9 20 -6.6 24 24 NNW 6 9 29.82 1010 10 16.0934 0 0
2:15 pm 14:15 Sunny 58 14.5 22 -5.6 25 25 WNW 9 15 29.8 1009 10 16.0934 0 0
2:35 pm 14:35 Sunny 58 14.5 21 -6.1 24 24 NNW 8 13 29.79 1009 10 16.0934 0 0
2:55 pm 14:55 Sunny 59 14.8 22 -5.5 24 24 NNW 12 19 29.78 1009 10 16.0934 0 0
3:15 pm 15:15 Sunny 58 14.6 20 -6.6 23 23 NNW 7 11 29.78 1009 10 16.0934 0 0
3:35 pm 15:35 Sunny 59 15.2 22 -5.8 23 23 W 10 17 29.76 1008 10 16.0934 0 0
3:55 pm 15:55 Sunny 60 15.7 19 -7.4 20 20 W 10 17 29.74 1007 10 16.0934 0 0
4:15 pm 16:15 Sunny 60 15.7 19 -7.2 20 20 WNW 8 13 29.73 1007 10 16.0934 0 0
4:35 pm 16:35 Sunny 61 16 19 -7.1 20 20 WNW 8 13 29.72 1006 10 16.0934 0 0
4:55 pm 16:55 Sunny 61 16.1 20 -6.5 21 21 WNW 6 9 29.71 1006 10 16.0934 0 0
5:15 pm 17:15 Sunny 61 16.2 19 -7.3 19 19 Calm 29.7 1006 10 16.0934 0 0
5:35 pm 17:35 Sunny 62 16.5 20 -6.7 20 20 WNW 7 11 29.69 1005 10 16.0934 0 0
5:55 pm 17:55 Sunny 61 16.3 18 -7.6 19 19 WSW 3 6 29.69 1005 10 16.0934 0 0
6:15 pm 18:15 Sunny 62 16.4 19 -7.4 19 19 W 7 11 29.67 1005 10 16.0934 0 0
6:35 pm 18:35 Sunny 62 16.5 18 -7.7 18 18 NW 7 11 29.67 1005 10 16.0934 0 0
6:55 pm 18:55 Sunny 61 16.3 18 -7.9 18 18 W 8 13 29.66 1004 10 16.0934 0 0
7:15 pm 19:15 Sunny 60 15.8 19 -7.5 20 20 WSW 6 9 29.66 1004 10 16.0934 0 0
7:35 pm 19:35 Sunny 59 15.2 19 -7 21 21 WSW 6 9 29.66 1004 10 16.0934 0 0
7:55 pm 19:55 Sunny 58 14.2 20 -6.9 23 23 SSW 3 6 29.67 1005 10 16.0934 0 0
8:15 pm 20:15 Clear 58 14.2 20 -6.5 23 23 SSW 5 7 29.67 1005 10 16.0934 0 0
8:35 pm 20:35 Clear 55 12.6 22 -5.5 28 28 SSE 3 6 29.67 1005 10 16.0934 0 0
8:55 pm 20:55 Clear 53 11.4 22 -5.6 30 30 S 3 6 29.68 1005 10 16.0934 0 0
9:15 pm 21:15 Clear 45 7.3 28 -2.1 52 52 ESE 6 9 29.72 1006 10 16.0934 0 0
9:35 pm 21:35 Clear 46 7.9 28 -2.5 48 48 ESE 6 9 29.71 1006 10 16.0934 0 0
9:55 pm 21:55 Clear 44 6.7 29 -1.7 55 55 SE 7 11 29.72 1007 10 16.0934 0 0
10:15 pm 22:15 Clear 44 6.8 27 -2.6 52 52 SE 6 9 29.72 1006 10 16.0934 0 0
10:35 pm 22:35 Clear 43 6 27 -2.6 54 54 SE 6 9 29.72 1006 10 16.0934 0 0
10:55 pm 22:55 Clear 44 6.5 25 -3.8 48 48 SE 6 9 29.71 1006 10 16.0934 0 0
11:15 pm 23:15 Clear 43 6.3 24 -4.4 47 47 SSE 6 9 29.72 1006 10 16.0934 0 0
11:35 pm 23:35 Clear 43 6.2 24 -4.5 47 47 SSE 8 13 29.71 1006 10 16.0934 0 0
11:55 pm 23:55 Clear 41 5.2 25 -4.1 51 51 SSE 7 11 29.72 1006 10 16.0934 0 0

Powered by AerisWeather